,,,PA_Meas_PMT16A,,PR_Meas_QMR101_102,,RH_Meas_QMH101,,SR_Meas_QMS101,,TA_Meas_QMH101,,GenWind,,GenWind,
date,time,status,PA,status,PR,status,RH,status,SR,status,TA,status,DirAvg,status,SpdAvg,
2008-08-20, 00:00:04,VALID,1011.82,VALID,0,VALID,91.082,VALID,0,VALID,24.5106,VALID,117,VALID,0.839063,
2008-08-20, 00:01:04,VALID,1011.8,VALID,0,VALID,90.8761,VALID,0.105969,VALID,24.532,VALID,115,VALID,1.06367,
2008-08-20, 00:02:04,VALID,1011.78,VALID,0,VALID,91.0667,VALID,0.105969,VALID,24.5106,VALID,127,VALID,0.972656,
2008-08-20, 00:03:04,VALID,1011.79,VALID,0,VALID,90.5406,VALID,0.105969,VALID,24.5301,VALID,139,VALID,0.907422,
2008-08-20, 00:04:04,VALID,1011.72,VALID,0,VALID,90.5482,VALID,0.105969,VALID,24.5496,VALID,141,VALID,1.05508,
2008-08-20, 00:05:04,VALID,1011.72,VALID,0,VALID,90.6626,VALID,0.105969,VALID,24.5301,VALID,129,VALID,0.996094,
2008-08-20, 00:06:04,VALID,1011.66,VALID,0,VALID,90.7922,VALID,0.105969,VALID,24.5691,VALID,120,VALID,0.851953,
2008-08-20, 00:07:04,VALID,1011.65,VALID,0,VALID,90.8227,VALID,0.105969,VALID,24.5691,VALID,123,VALID,0.822266,
2008-08-20, 00:08:04,VALID,1011.63,VALID,0,VALID,90.9981,VALID,0.105969,VALID,24.5496,VALID,111,VALID,0.591016,
2008-08-20, 00:09:04,VALID,1011.59,VALID,0,VALID,90.5939,VALID,0.105969,VALID,24.5301,VALID,97,VALID,1.17852,
2008-08-20, 00:10:04,VALID,1011.6,VALID,0,VALID,90.3804,VALID,0.105969,VALID,24.5301,VALID,106,VALID,0.918359,
2008-08-20, 00:11:04,VALID,1011.61,VALID,0,VALID,90.4109,VALID,0.105969,VALID,24.5301,VALID,103,VALID,0.750781,
2008-08-20, 00:12:04,VALID,1011.61,VALID,0,VALID,90.0983,VALID,0.105969,VALID,24.5106,VALID,94,VALID,1.44492,
2008-08-20, 00:13:04,VALID,1011.62,VALID,0,VALID,90.1135,VALID,0.105969,VALID,24.5301,VALID,108,VALID,1.04727,
2008-08-20, 00:14:04,VALID,1011.59,VALID,0,VALID,90.6702,VALID,0.105969,VALID,24.5301,VALID,127,VALID,0.651172,
2008-08-20, 00:15:04,VALID,1011.56,VALID,0,VALID,90.4186,VALID,0.105969,VALID,24.5301,VALID,147,VALID,0.910547,
2008-08-20, 00:16:04,VALID,1011.53,VALID,0,VALID,90.2813,VALID,0.105969,VALID,24.4911,VALID,149,VALID,0.976953,
2008-08-20, 00:17:04,VALID,1011.5,VALID,0,VALID,90.4186,VALID,0.105969,VALID,24.4717,VALID,167,VALID,0.766797,
2008-08-20, 00:18:04,VALID,1011.49,VALID,0,VALID,90.5558,VALID,0.105969,VALID,24.4327,VALID,164,VALID,0.673828,
2008-08-20, 00:19:04,VALID,1011.47,VALID,0,VALID,90.6321,VALID,0.105969,VALID,24.4132,VALID,171,VALID,0.881641,
2008-08-20, 00:20:04,VALID,1011.45,VALID,0,VALID,90.9219,VALID,0.105969,VALID,24.4132,VALID,158,VALID,0.698047,
2008-08-20, 00:21:04,VALID,1011.4,VALID,0,VALID,91.0057,VALID,0.105969,VALID,24.3956,VALID,160,VALID,0.973437,
2008-08-20, 00:22:04,VALID,1011.39,VALID,0,VALID,91.0591,VALID,0.105969,VALID,24.3547,VALID,147,VALID,0.752344,
2008-08-20, 00:23:04,VALID,1011.36,VALID,0,VALID,91.1278,VALID,0.105969,VALID,24.3547,VALID,144,VALID,0.942578,
2008-08-20, 00:24:04,VALID,1011.33,VALID,0,VALID,91.2955,VALID,0.105969,VALID,24.3334,VALID,144,VALID,0.746875,
2008-08-20, 00:25:04,VALID,1011.33,VALID,0,VALID,90.9905,VALID,0.105969,VALID,24.3352,VALID,133,VALID,1.27188,
2008-08-20, 00:26:04,VALID,1011.32,VALID,0,VALID,91.0591,VALID,0.105969,VALID,24.3334,VALID,146,VALID,0.877344,
2008-08-20, 00:27:04,VALID,1011.33,VALID,0,VALID,91.1583,VALID,0.105969,VALID,24.3352,VALID,154,VALID,0.861328,
2008-08-20, 00:28:04,VALID,1011.35,VALID,0,VALID,91.1583,VALID,0.105969,VALID,24.3352,VALID,152,VALID,0.8125,
2008-08-20, 00:29:04,VALID,1011.34,VALID,0,VALID,91.4785,VALID,0.105969,VALID,24.3761,VALID,147,VALID,0.475391,
2008-08-20, 00:30:04,VALID,1011.3,VALID,0,VALID,91.5929,VALID,0.105969,VALID,24.3139,VALID,145,VALID,0.510547,
2008-08-20, 00:31:04,VALID,1011.33,VALID,0,VALID,91.3184,VALID,0,VALID,24.3352,VALID,145,VALID,0.220703,
2008-08-20, 00:32:04,VALID,1011.32,VALID,0,VALID,91.387,VALID,0.105969,VALID,24.3547,VALID,145,VALID,0.15,
2008-08-20, 00:33:04,VALID,1011.32,VALID,0,VALID,90.96,VALID,0.105969,VALID,24.3352,VALID,86,VALID,0.448438,
2008-08-20, 00:34:04,VALID,1011.31,VALID,0,VALID,90.96,VALID,0,VALID,24.3547,VALID,80,VALID,0.324219,
2008-08-20, 00:35:04,VALID,1011.28,VALID,0,VALID,90.1822,VALID,0,VALID,24.3547,VALID,71,VALID,0.798828,
2008-08-20, 00:36:04,VALID,1011.27,VALID,0,VALID,90.1059,VALID,0.105969,VALID,24.3937,VALID,65,VALID,0.4625,
2008-08-20, 00:37:04,VALID,1011.29,VALID,0,VALID,90.1212,VALID,0,VALID,24.415,VALID,29,VALID,0.225391,
2008-08-20, 00:38:04,VALID,1011.28,VALID,0,VALID,90.9142,VALID,0.105969,VALID,24.4345,VALID,1,VALID,0.682422,
2008-08-20, 00:39:04,VALID,1011.27,VALID,0,VALID,90.9219,VALID,0,VALID,24.3742,VALID,1,VALID,0.533203,
2008-08-20, 00:40:04,VALID,1011.24,VALID,0,VALID,91.0286,VALID,0,VALID,24.3352,VALID,1,VALID,0.245703,
2008-08-20, 00:41:04,VALID,1011.24,VALID,0,VALID,91.082,VALID,0.105969,VALID,24.3352,VALID,360,VALID,0.130859,
2008-08-20, 00:42:04,VALID,1011.21,VALID,0,VALID,91.0896,VALID,0.105969,VALID,24.3158,VALID,360,VALID,0,
2008-08-20, 00:43:04,VALID,1011.22,VALID,0,VALID,91.5243,VALID,0.105969,VALID,24.3158,VALID,360,VALID,0,
2008-08-20, 00:44:04,VALID,1011.17,VALID,0,VALID,91.1811,VALID,0.105969,VALID,24.2768,VALID,360,VALID,0,
2008-08-20, 00:45:04,VALID,1011.14,VALID,0,VALID,91.57,VALID,0.105969,VALID,24.2768,VALID,360,VALID,0,
2008-08-20, 00:46:04,VALID,1011.12,VALID,0,VALID,91.4709,VALID,0,VALID,24.2573,VALID,360,VALID,0,
2008-08-20, 00:47:04,VALID,1011.05,VALID,0,VALID,91.3642,VALID,0,VALID,24.2591,VALID,360,VALID,0,
2008-08-20, 00:48:04,VALID,1010.99,VALID,0,VALID,91.5472,VALID,0.105969,VALID,24.2378,VALID,360,VALID,0,
2008-08-20, 00:49:04,VALID,1010.96,VALID,0,VALID,91.7073,VALID,0,VALID,24.2202,VALID,360,VALID,0,
2008-08-20, 00:50:04,VALID,1010.93,VALID,0,VALID,92.0276,VALID,0.105969,VALID,24.2202,VALID,360,VALID,0,
2008-08-20, 00:51:04,VALID,1010.88,VALID,0,VALID,92.081,VALID,0.105969,VALID,24.2007,VALID,360,VALID,0,
2008-08-20, 00:52:04,VALID,1010.88,VALID,0,VALID,92.2259,VALID,0.105969,VALID,24.2007,VALID,360,VALID,0,
2008-08-20, 00:53:04,VALID,1010.85,VALID,0,VALID,92.1801,VALID,0,VALID,24.1599,VALID,1,VALID,0,
2008-08-20, 00:54:04,VALID,1010.81,VALID,0,VALID,91.8903,VALID,0.105969,VALID,24.1617,VALID,29,VALID,0.399219,
2008-08-20, 00:55:04,VALID,1010.8,VALID,0,VALID,91.9895,VALID,0.105969,VALID,24.1404,VALID,29,VALID,0.270703,
2008-08-20, 00:56:04,VALID,1010.83,VALID,0,VALID,92.02,VALID,0,VALID,24.1599,VALID,29,VALID,0.341797,
2008-08-20, 00:57:04,VALID,1010.77,VALID,0,VALID,91.9437,VALID,0.105969,VALID,24.1404,VALID,8,VALID,0.285156,
2008-08-20, 00:58:04,VALID,1010.79,VALID,0,VALID,91.7988,VALID,0.105969,VALID,24.1209,VALID,346,VALID,0.388281,
2008-08-20, 00:59:04,VALID,1010.78,VALID,0,VALID,92.0047,VALID,0.105969,VALID,24.1404,VALID,346,VALID,0.291406,
2008-08-20, 01:00:04,VALID,1010.73,VALID,0,VALID,92.0962,VALID,0,VALID,24.1404,VALID,346,VALID,0.308984,
2008-08-20, 01:01:04,VALID,1010.76,VALID,0,VALID,92.0047,VALID,0.105969,VALID,24.1404,VALID,346,VALID,0.369922,
2008-08-20, 01:02:04,VALID,1010.71,VALID,0,VALID,91.5472,VALID,0.105969,VALID,24.1209,VALID,342,VALID,0.462109,
2008-08-20, 01:03:04,VALID,1010.72,VALID,0,VALID,91.7912,VALID,0,VALID,24.1209,VALID,342,VALID,0.346484,
2008-08-20, 01:04:04,VALID,1010.7,VALID,0,VALID,91.7988,VALID,0,VALID,24.1014,VALID,342,VALID,0.376953,
2008-08-20, 01:05:04,VALID,1010.67,VALID,0,VALID,91.8598,VALID,0.105969,VALID,24.1227,VALID,342,VALID,0.361719,
2008-08-20, 01:06:04,VALID,1010.65,VALID,0,VALID,91.959,VALID,0,VALID,24.0837,VALID,342,VALID,0.340234,
2008-08-20, 01:07:04,VALID,1010.65,VALID,0,VALID,92.2335,VALID,0.105969,VALID,24.0429,VALID,342,VALID,0.314453,
2008-08-20, 01:08:04,VALID,1010.63,VALID,0,VALID,92.4928,VALID,0.105969,VALID,24.0429,VALID,342,VALID,0.277344,
2008-08-20, 01:09:04,VALID,1010.63,VALID,0,VALID,92.5538,VALID,0,VALID,24.0235,VALID,342,VALID,0.266406,
2008-08-20, 01:10:04,VALID,1010.63,VALID,0,VALID,92.5233,VALID,0.105969,VALID,23.9845,VALID,342,VALID,0.338281,
2008-08-20, 01:11:04,VALID,1010.62,VALID,0,VALID,92.5385,VALID,0.105969,VALID,23.9845,VALID,342,VALID,0.367969,
2008-08-20, 01:12:04,VALID,1010.63,VALID,0,VALID,92.7749,VALID,0,VALID,23.9845,VALID,342,VALID,0.404297,
2008-08-20, 01:13:04,VALID,1010.65,VALID,0,VALID,93.0418,VALID,0.105969,VALID,23.9845,VALID,357,VALID,0.43125,
2008-08-20, 01:14:04,VALID,1010.64,VALID,0,VALID,92.9732,VALID,0.105969,VALID,23.965,VALID,16,VALID,0.528906,
2008-08-20, 01:15:04,VALID,1010.66,VALID,0,VALID,93.0113,VALID,0.105969,VALID,23.965,VALID,16,VALID,0.395703,
2008-08-20, 01:16:04,VALID,1010.64,VALID,0,VALID,93.0799,VALID,0.105969,VALID,23.926,VALID,15,VALID,0.327344,
2008-08-20, 01:17:04,VALID,1010.67,VALID,0,VALID,93.141,VALID,0.105969,VALID,23.9455,VALID,1,VALID,0.315625,
2008-08-20, 01:18:04,VALID,1010.68,VALID,0,VALID,93.202,VALID,0.105969,VALID,23.965,VALID,338,VALID,0.415234,
2008-08-20, 01:19:04,VALID,1010.69,VALID,0,VALID,93.1638,VALID,0.105969,VALID,23.965,VALID,306,VALID,0.291406,
2008-08-20, 01:20:04,VALID,1010.68,VALID,0,VALID,93.0952,VALID,0.105969,VALID,23.9845,VALID,298,VALID,0.328516,
2008-08-20, 01:21:04,VALID,1010.68,VALID,0,VALID,92.9579,VALID,0.105969,VALID,24.004,VALID,298,VALID,0.219922,
2008-08-20, 01:22:04,VALID,1010.65,VALID,0,VALID,92.8359,VALID,0,VALID,24.0235,VALID,280,VALID,0.165625,
2008-08-20, 01:23:04,VALID,1010.64,VALID,0,VALID,92.7902,VALID,0.105969,VALID,24.0624,VALID,283,VALID,0.136328,
2008-08-20, 01:24:04,VALID,1010.63,VALID,0,VALID,92.6758,VALID,0.105969,VALID,24.0819,VALID,283,VALID,0.134766,
2008-08-20, 01:25:04,VALID,1010.59,VALID,0,VALID,92.508,VALID,0.105969,VALID,24.0819,VALID,283,VALID,0.233984,
2008-08-20, 01:26:04,VALID,1010.57,VALID,0,VALID,92.4851,VALID,0,VALID,24.1014,VALID,342,VALID,0.31875,
2008-08-20, 01:27:04,VALID,1010.56,VALID,0,VALID,92.5614,VALID,0.105969,VALID,24.0819,VALID,342,VALID,0.312891,
2008-08-20, 01:28:04,VALID,1010.57,VALID,0,VALID,92.6148,VALID,0.105969,VALID,24.0429,VALID,342,VALID,0.266406,
2008-08-20, 01:29:04,VALID,1010.54,VALID,0,VALID,92.7825,VALID,0.105969,VALID,24.0235,VALID,342,VALID,0.246484,
2008-08-20, 01:30:04,VALID,1010.56,VALID,0,VALID,92.8512,VALID,0.105969,VALID,23.9845,VALID,342,VALID,0.258203,
2008-08-20, 01:31:04,VALID,1010.54,VALID,0,VALID,92.9122,VALID,0,VALID,23.9668,VALID,342,VALID,0.23125,
2008-08-20, 01:32:04,VALID,1010.51,VALID,0,VALID,92.9656,VALID,0,VALID,23.9473,VALID,342,VALID,0.244141,
2008-08-20, 01:33:04,VALID,1010.51,VALID,0,VALID,93.0037,VALID,0,VALID,23.9084,VALID,342,VALID,0.299219,
2008-08-20, 01:34:04,VALID,1010.48,VALID,0,VALID,92.9198,VALID,0,VALID,23.8889,VALID,342,VALID,0.347266,
2008-08-20, 01:35:04,VALID,1010.46,VALID,0,VALID,93.0037,VALID,0,VALID,23.8676,VALID,342,VALID,0.352344,
2008-08-20, 01:36:04,VALID,1010.42,VALID,0,VALID,93.0342,VALID,0,VALID,23.8694,VALID,342,VALID,0.280078,
2008-08-20, 01:37:04,VALID,1010.4,VALID,0,VALID,93.1181,VALID,0,VALID,23.8694,VALID,342,VALID,0.325781,
2008-08-20, 01:38:04,VALID,1010.37,VALID,0,VALID,93.1333,VALID,0,VALID,23.8499,VALID,342,VALID,0.263281,
2008-08-20, 01:39:04,VALID,1010.36,VALID,0,VALID,93.1486,VALID,0,VALID,23.8109,VALID,342,VALID,0.228125,
2008-08-20, 01:40:04,VALID,1010.33,VALID,0,VALID,93.1943,VALID,0,VALID,23.8109,VALID,342,VALID,0.147266,
2008-08-20, 01:41:04,VALID,1010.29,VALID,0,VALID,93.2401,VALID,0,VALID,23.7914,VALID,342,VALID,0.172266,
2008-08-20, 01:42:04,VALID,1010.24,VALID,0,VALID,93.2858,VALID,0,VALID,23.772,VALID,342,VALID,0.264844,
2008-08-20, 01:43:04,VALID,1010.21,VALID,0,VALID,93.3697,VALID,0,VALID,23.733,VALID,342,VALID,0.367578,
2008-08-20, 01:44:04,VALID,1010.21,VALID,0,VALID,93.446,VALID,0,VALID,23.7153,VALID,343,VALID,0.4625,
2008-08-20, 01:45:04,VALID,1010.17,VALID,0,VALID,93.4994,VALID,0.105969,VALID,23.7135,VALID,18,VALID,0.573438,
2008-08-20, 01:46:04,VALID,1010.18,VALID,0,VALID,93.5451,VALID,0,VALID,23.6745,VALID,39,VALID,0.548047,
2008-08-20, 01:47:04,VALID,1010.18,VALID,0,VALID,93.6137,VALID,0,VALID,23.6568,VALID,39,VALID,0.473047,
2008-08-20, 01:48:04,VALID,1010.16,VALID,0,VALID,93.7129,VALID,0,VALID,23.6356,VALID,39,VALID,0.480078,
2008-08-20, 01:49:04,VALID,1010.18,VALID,0,VALID,93.8044,VALID,0,VALID,23.6568,VALID,39,VALID,0.270312,
2008-08-20, 01:50:04,VALID,1010.18,VALID,0,VALID,93.8273,VALID,0,VALID,23.6356,VALID,39,VALID,0.192969,
2008-08-20, 01:51:04,VALID,1010.18,VALID,0,VALID,93.8502,VALID,0,VALID,23.6356,VALID,39,VALID,0.116406,
2008-08-20, 01:52:04,VALID,1010.19,VALID,0,VALID,93.8883,VALID,0,VALID,23.6356,VALID,39,VALID,0,
2008-08-20, 01:53:04,VALID,1010.16,VALID,0,VALID,93.9417,VALID,0,VALID,23.6161,VALID,39,VALID,0,
2008-08-20, 01:54:04,VALID,1010.19,VALID,0,VALID,93.995,VALID,0,VALID,23.5966,VALID,39,VALID,0,
2008-08-20, 01:55:04,VALID,1010.17,VALID,0,VALID,94.0332,VALID,0,VALID,23.5771,VALID,39,VALID,0,
2008-08-20, 01:56:04,VALID,1010.19,VALID,0,VALID,94.0637,VALID,0,VALID,23.5576,VALID,39,VALID,0,
2008-08-20, 01:57:04,VALID,1010.15,VALID,0,VALID,94.0713,VALID,0,VALID,23.5576,VALID,39,VALID,0,
2008-08-20, 01:58:04,VALID,1010.19,VALID,0,VALID,94.1018,VALID,0,VALID,23.5381,VALID,39,VALID,0,
2008-08-20, 01:59:04,VALID,1010.19,VALID,0,VALID,94.1399,VALID,0,VALID,23.5381,VALID,39,VALID,0,
2008-08-20, 02:00:04,VALID,1010.2,VALID,0,VALID,94.1781,VALID,0,VALID,23.5381,VALID,39,VALID,0,
2008-08-20, 02:01:04,VALID,1010.2,VALID,0,VALID,94.2314,VALID,0,VALID,23.5186,VALID,39,VALID,0,
2008-08-20, 02:02:04,VALID,1010.22,VALID,0,VALID,94.1781,VALID,0,VALID,23.4992,VALID,39,VALID,0,
2008-08-20, 02:03:04,VALID,1010.23,VALID,0,VALID,94.1704,VALID,0,VALID,23.4992,VALID,39,VALID,0,
2008-08-20, 02:04:04,VALID,1010.27,VALID,0,VALID,94.2086,VALID,0,VALID,23.4797,VALID,39,VALID,0,
2008-08-20, 02:05:04,VALID,1010.26,VALID,0,VALID,94.2391,VALID,0,VALID,23.4797,VALID,39,VALID,0,
2008-08-20, 02:06:04,VALID,1010.3,VALID,0,VALID,94.2467,VALID,0,VALID,23.4797,VALID,41,VALID,0,
2008-08-20, 02:07:04,VALID,1010.32,VALID,0,VALID,94.3077,VALID,0,VALID,23.4797,VALID,65,VALID,0,
2008-08-20, 02:08:04,VALID,1010.32,VALID,0,VALID,94.3763,VALID,0,VALID,23.4992,VALID,65,VALID,0,
2008-08-20, 02:09:04,VALID,1010.33,VALID,0,VALID,94.4221,VALID,0,VALID,23.4992,VALID,65,VALID,0,
2008-08-20, 02:10:04,VALID,1010.35,VALID,0,VALID,94.4373,VALID,0,VALID,23.4992,VALID,80,VALID,0.345313,
2008-08-20, 02:11:04,VALID,1010.33,VALID,0,VALID,94.4145,VALID,0,VALID,23.4992,VALID,127,VALID,0.460547,
2008-08-20, 02:12:04,VALID,1010.34,VALID,0,VALID,94.3687,VALID,0,VALID,23.4797,VALID,127,VALID,0.364062,
2008-08-20, 02:13:04,VALID,1010.33,VALID,0,VALID,94.3687,VALID,0,VALID,23.4389,VALID,127,VALID,0.207813,
2008-08-20, 02:14:04,VALID,1010.34,VALID,0,VALID,94.3839,VALID,0,VALID,23.4797,VALID,127,VALID,0,
2008-08-20, 02:15:04,VALID,1010.32,VALID,0,VALID,94.3763,VALID,0,VALID,23.5009,VALID,127,VALID,0,
2008-08-20, 02:16:04,VALID,1010.32,VALID,0,VALID,94.4373,VALID,0,VALID,23.4815,VALID,127,VALID,0,
2008-08-20, 02:17:04,VALID,1010.31,VALID,0,VALID,94.4145,VALID,0,VALID,23.4797,VALID,127,VALID,0,
2008-08-20, 02:18:04,VALID,1010.33,VALID,0,VALID,94.3763,VALID,0,VALID,23.4602,VALID,127,VALID,0,
2008-08-20, 02:19:04,VALID,1010.32,VALID,0,VALID,94.3611,VALID,0,VALID,23.4407,VALID,127,VALID,0,
2008-08-20, 02:20:04,VALID,1010.35,VALID,0,VALID,94.4297,VALID,0,VALID,23.4602,VALID,127,VALID,0,
2008-08-20, 02:21:04,VALID,1010.34,VALID,0,VALID,94.4221,VALID,0,VALID,23.4602,VALID,127,VALID,0,
2008-08-20, 02:22:04,VALID,1010.37,VALID,0,VALID,94.4068,VALID,0,VALID,23.4407,VALID,127,VALID,0,
2008-08-20, 02:23:04,VALID,1010.39,VALID,0,VALID,94.4145,VALID,0,VALID,23.4602,VALID,127,VALID,0,
2008-08-20, 02:24:04,VALID,1010.4,VALID,0,VALID,94.445,VALID,0,VALID,23.4407,VALID,127,VALID,0,
2008-08-20, 02:25:04,VALID,1010.41,VALID,0,VALID,94.3992,VALID,0,VALID,23.462,VALID,127,VALID,0,
2008-08-20, 02:26:04,VALID,1010.41,VALID,0,VALID,94.3916,VALID,0,VALID,23.4212,VALID,127,VALID,0,
2008-08-20, 02:27:04,VALID,1010.43,VALID,0,VALID,94.4297,VALID,0,VALID,23.4017,VALID,127,VALID,0,
2008-08-20, 02:28:04,VALID,1010.44,VALID,0,VALID,94.4145,VALID,0,VALID,23.4017,VALID,127,VALID,0,
2008-08-20, 02:29:04,VALID,1010.45,VALID,0,VALID,94.4145,VALID,0,VALID,23.4017,VALID,127,VALID,0,
2008-08-20, 02:30:04,VALID,1010.45,VALID,0,VALID,94.4145,VALID,0,VALID,23.3823,VALID,127,VALID,0,
2008-08-20, 02:31:04,VALID,1010.47,VALID,0,VALID,94.4526,VALID,0,VALID,23.3823,VALID,127,VALID,0,
2008-08-20, 02:32:04,VALID,1010.47,VALID,0,VALID,94.4831,VALID,0,VALID,23.361,VALID,128,VALID,0,
2008-08-20, 02:33:04,VALID,1010.5,VALID,0,VALID,94.4907,VALID,0,VALID,23.4017,VALID,134,VALID,0.880078,
2008-08-20, 02:34:04,VALID,1010.5,VALID,0,VALID,94.506,VALID,0,VALID,23.4017,VALID,135,VALID,0.592188,
2008-08-20, 02:35:04,VALID,1010.49,VALID,0,VALID,94.4526,VALID,0,VALID,23.3823,VALID,135,VALID,0.371484,
2008-08-20, 02:36:04,VALID,1010.49,VALID,0,VALID,94.4221,VALID,0,VALID,23.3628,VALID,135,VALID,0.117188,
2008-08-20, 02:37:04,VALID,1010.5,VALID,0,VALID,94.4068,VALID,0,VALID,23.3628,VALID,135,VALID,0,
2008-08-20, 02:38:04,VALID,1010.5,VALID,0,VALID,94.4602,VALID,0,VALID,23.3628,VALID,135,VALID,0.0804688,
2008-08-20, 02:39:04,VALID,1010.5,VALID,0,VALID,94.5365,VALID,0,VALID,23.3628,VALID,135,VALID,0.138672,
2008-08-20, 02:40:04,VALID,1010.52,VALID,0,VALID,94.5898,VALID,0,VALID,23.3628,VALID,135,VALID,0.324219,
2008-08-20, 02:41:04,VALID,1010.59,VALID,0,VALID,94.6356,VALID,0,VALID,23.3628,VALID,145,VALID,0.500781,
2008-08-20, 02:42:04,VALID,1010.57,VALID,0,VALID,94.7042,VALID,0,VALID,23.3628,VALID,157,VALID,0.577734,
2008-08-20, 02:43:04,VALID,1010.59,VALID,0,VALID,94.7424,VALID,0,VALID,23.3628,VALID,154,VALID,0.886328,
2008-08-20, 02:44:04,VALID,1010.61,VALID,0,VALID,94.7957,VALID,0,VALID,23.3823,VALID,153,VALID,0.824219,
2008-08-20, 02:45:04,VALID,1010.59,VALID,0,VALID,94.8034,VALID,0,VALID,23.3823,VALID,166,VALID,0.833594,
2008-08-20, 02:46:04,VALID,1010.61,VALID,0,VALID,94.8034,VALID,0,VALID,23.3823,VALID,158,VALID,0.680469,
2008-08-20, 02:47:04,VALID,1010.63,VALID,0,VALID,94.8491,VALID,0,VALID,23.3823,VALID,148,VALID,0.85625,
2008-08-20, 02:48:04,VALID,1010.64,VALID,0,VALID,94.8796,VALID,0,VALID,23.4017,VALID,172,VALID,0.733203,
2008-08-20, 02:49:04,VALID,1010.66,VALID,0,VALID,94.8949,VALID,0,VALID,23.4212,VALID,159,VALID,0.673047,
2008-08-20, 02:50:04,VALID,1010.65,VALID,0,VALID,94.8796,VALID,0,VALID,23.4212,VALID,157,VALID,0.644922,
2008-08-20, 02:51:04,VALID,1010.66,VALID,0,VALID,94.9101,VALID,0,VALID,23.4797,VALID,159,VALID,1.07695,
2008-08-20, 02:52:04,VALID,1010.65,VALID,0,VALID,94.872,VALID,0,VALID,23.4797,VALID,138,VALID,1.11523,
2008-08-20, 02:53:04,VALID,1010.67,VALID,0,VALID,94.872,VALID,0,VALID,23.5186,VALID,153,VALID,0.520312,
2008-08-20, 02:54:04,VALID,1010.67,VALID,0,VALID,94.8262,VALID,0,VALID,23.4992,VALID,162,VALID,0.576563,
2008-08-20, 02:55:04,VALID,1010.64,VALID,0,VALID,94.811,VALID,0,VALID,23.5381,VALID,130,VALID,0.500781,
2008-08-20, 02:56:04,VALID,1010.62,VALID,0,VALID,94.7652,VALID,0,VALID,23.5381,VALID,130,VALID,0.35625,
2008-08-20, 02:57:04,VALID,1010.61,VALID,0,VALID,94.7347,VALID,0,VALID,23.5576,VALID,130,VALID,0.328125,
2008-08-20, 02:58:04,VALID,1010.63,VALID,0,VALID,94.6356,VALID,0,VALID,23.5789,VALID,149,VALID,0.610937,
2008-08-20, 02:59:04,VALID,1010.66,VALID,0,VALID,94.5593,VALID,0,VALID,23.5576,VALID,150,VALID,0.733203,
2008-08-20, 03:00:04,VALID,1010.66,VALID,0,VALID,94.4221,VALID,0,VALID,23.5771,VALID,154,VALID,0.673437,
2008-08-20, 03:01:04,VALID,1010.66,VALID,0,VALID,94.3077,VALID,0,VALID,23.5966,VALID,152,VALID,0.540625,
2008-08-20, 03:02:04,VALID,1010.67,VALID,0,VALID,94.1399,VALID,0,VALID,23.5966,VALID,159,VALID,0.696875,
2008-08-20, 03:03:04,VALID,1010.67,VALID,0,VALID,93.9417,VALID,0,VALID,23.6161,VALID,135,VALID,0.536719,
2008-08-20, 03:04:04,VALID,1010.66,VALID,0,VALID,93.7891,VALID,0,VALID,23.6356,VALID,135,VALID,0.285547,
2008-08-20, 03:05:04,VALID,1010.63,VALID,0,VALID,93.7053,VALID,0.105969,VALID,23.6745,VALID,135,VALID,0.151172,
2008-08-20, 03:06:04,VALID,1010.62,VALID,0,VALID,93.5604,VALID,0,VALID,23.694,VALID,135,VALID,0.245312,
2008-08-20, 03:07:04,VALID,1010.61,VALID,0,VALID,93.4765,VALID,0,VALID,23.655,VALID,145,VALID,0.595703,
2008-08-20, 03:08:04,VALID,1010.59,VALID,0,VALID,93.0571,VALID,0.105969,VALID,23.6745,VALID,149,VALID,0.337109,
2008-08-20, 03:09:04,VALID,1010.57,VALID,0,VALID,92.8741,VALID,0.105969,VALID,23.6745,VALID,149,VALID,0.0527344,
2008-08-20, 03:10:04,VALID,1010.55,VALID,0,VALID,92.8436,VALID,0,VALID,23.694,VALID,149,VALID,0,
2008-08-20, 03:11:04,VALID,1010.54,VALID,0,VALID,92.7368,VALID,0,VALID,23.6958,VALID,149,VALID,0.296875,
2008-08-20, 03:12:04,VALID,1010.56,VALID,0,VALID,92.6987,VALID,0,VALID,23.694,VALID,149,VALID,0.283984,
2008-08-20, 03:13:04,VALID,1010.57,VALID,0,VALID,92.4623,VALID,0,VALID,23.6745,VALID,149,VALID,0.387891,
2008-08-20, 03:14:04,VALID,1010.58,VALID,0,VALID,92.4394,VALID,0,VALID,23.6745,VALID,149,VALID,0.424219,
2008-08-20, 03:15:04,VALID,1010.6,VALID,0,VALID,92.4546,VALID,0,VALID,23.6745,VALID,149,VALID,0.138281,
2008-08-20, 03:16:04,VALID,1010.58,VALID,0,VALID,92.4013,VALID,0,VALID,23.6745,VALID,149,VALID,0,
2008-08-20, 03:17:04,VALID,1010.58,VALID,0,VALID,92.386,VALID,0,VALID,23.655,VALID,149,VALID,0.0132813,
2008-08-20, 03:18:04,VALID,1010.55,VALID,0,VALID,92.386,VALID,0,VALID,23.6745,VALID,149,VALID,0.196484,
2008-08-20, 03:19:04,VALID,1010.57,VALID,0,VALID,92.1191,VALID,0,VALID,23.655,VALID,149,VALID,0.319922,
2008-08-20, 03:20:04,VALID,1010.56,VALID,0,VALID,91.8446,VALID,0,VALID,23.6356,VALID,123,VALID,0.535937,
2008-08-20, 03:21:04,VALID,1010.53,VALID,0,VALID,91.6921,VALID,0,VALID,23.6745,VALID,111,VALID,0.537891,
2008-08-20, 03:22:04,VALID,1010.53,VALID,0,VALID,92.0047,VALID,0,VALID,23.694,VALID,100,VALID,0.676562,
2008-08-20, 03:23:04,VALID,1010.49,VALID,0,VALID,91.6463,VALID,0,VALID,23.694,VALID,123,VALID,0.713281,
2008-08-20, 03:24:04,VALID,1010.47,VALID,0,VALID,91.9056,VALID,0,VALID,23.7135,VALID,94,VALID,0.8375,
2008-08-20, 03:25:04,VALID,1010.46,VALID,0,VALID,91.7988,VALID,0,VALID,23.7135,VALID,108,VALID,0.771484,
2008-08-20, 03:26:04,VALID,1010.47,VALID,0,VALID,92.0276,VALID,0,VALID,23.733,VALID,80,VALID,0.690625,
2008-08-20, 03:27:04,VALID,1010.45,VALID,0,VALID,92.0962,VALID,0,VALID,23.694,VALID,86,VALID,0.932813,
2008-08-20, 03:28:04,VALID,1010.46,VALID,0,VALID,92.1496,VALID,0,VALID,23.6745,VALID,75,VALID,1.14805,
2008-08-20, 03:29:04,VALID,1010.48,VALID,0,VALID,92.3402,VALID,0,VALID,23.6356,VALID,90,VALID,0.887109,
2008-08-20, 03:30:04,VALID,1010.46,VALID,0,VALID,92.5004,VALID,0,VALID,23.5771,VALID,86,VALID,1.14414,
2008-08-20, 03:31:04,VALID,1010.47,VALID,0,VALID,92.7063,VALID,0,VALID,23.5381,VALID,88,VALID,1.14336,
2008-08-20, 03:32:04,VALID,1010.47,VALID,0,VALID,92.7597,VALID,0,VALID,23.4992,VALID,78,VALID,1.14531,
2008-08-20, 03:33:04,VALID,1010.48,VALID,0,VALID,92.7063,VALID,0,VALID,23.4602,VALID,68,VALID,1.12812,
2008-08-20, 03:34:04,VALID,1010.45,VALID,0,VALID,92.7215,VALID,0,VALID,23.4407,VALID,74,VALID,1.07109,
2008-08-20, 03:35:04,VALID,1010.44,VALID,0,VALID,92.7902,VALID,0,VALID,23.423,VALID,79,VALID,0.811328,
2008-08-20, 03:36:04,VALID,1010.43,VALID,0,VALID,92.8664,VALID,0,VALID,23.3628,VALID,78,VALID,1.0832,
2008-08-20, 03:37:04,VALID,1010.42,VALID,0,VALID,92.9579,VALID,0,VALID,23.3238,VALID,88,VALID,1.40977,
2008-08-20, 03:38:04,VALID,1010.43,VALID,0,VALID,92.9427,VALID,0,VALID,23.3238,VALID,83,VALID,1.19141,
2008-08-20, 03:39:04,VALID,1010.41,VALID,0,VALID,92.9579,VALID,0,VALID,23.3256,VALID,90,VALID,1.025,
2008-08-20, 03:40:04,VALID,1010.44,VALID,0,VALID,92.9808,VALID,0,VALID,23.3043,VALID,91,VALID,0.834766,
2008-08-20, 03:41:04,VALID,1010.41,VALID,0,VALID,92.9961,VALID,0,VALID,23.2636,VALID,94,VALID,0.801562,
2008-08-20, 03:42:04,VALID,1010.44,VALID,0,VALID,93.0342,VALID,0,VALID,23.2654,VALID,87,VALID,0.535547,
2008-08-20, 03:43:04,VALID,1010.43,VALID,0,VALID,93.0876,VALID,0,VALID,23.2459,VALID,94,VALID,0.628125,